Time,TemperatureF,DewpointF,PressureIn,WindDirection,WindDirectionDegrees,WindSpeedMPH,WindSpeedGustMPH,Humidity,HourlyPrecipIn,Conditions,Clouds,dailyrainin,SoftwareType,DateUTC
2014-10-02 00:09:00,64.3,54.3,29.96,East,80,0.0,0.0,70,0.00,,,0.00,Wunderground v.1.15,2014-10-02 05:09:00,
2014-10-02 00:19:00,64.2,54.2,29.96,East,81,0.0,0.0,70,0.00,,,0.00,Wunderground v.1.15,2014-10-02 05:19:00,
2014-10-02 00:24:00,64.1,53.7,29.96,East,80,0.0,0.0,69,0.00,,,0.00,Wunderground v.1.15,2014-10-02 05:24:00,
2014-10-02 00:34:00,63.9,53.9,29.96,East,80,0.0,0.0,70,0.00,,,0.00,Wunderground v.1.15,2014-10-02 05:34:00,
2014-10-02 00:39:00,63.8,53.8,29.96,East,80,0.0,0.0,70,0.00,,,0.00,Wunderground v.1.15,2014-10-02 05:39:00,
2014-10-02 00:44:00,63.7,53.7,29.96,East,81,0.0,0.0,70,0.00,,,0.00,Wunderground v.1.15,2014-10-02 05:44:00,
2014-10-02 00:49:00,63.6,53.2,29.96,East,80,0.0,0.0,69,0.00,,,0.00,Wunderground v.1.15,2014-10-02 05:49:00,
2014-10-02 00:54:00,63.5,52.3,29.96,East,80,0.0,0.0,67,0.00,,,0.00,Wunderground v.1.15,2014-10-02 05:54:00,
2014-10-02 01:04:00,63.4,51.8,29.96,East,81,0.0,0.0,66,0.00,,,0.00,Wunderground v.1.15,2014-10-02 06:04:00,
2014-10-02 01:14:00,63.4,51.0,29.96,East,80,0.0,0.0,64,0.00,,,0.00,Wunderground v.1.15,2014-10-02 06:14:00,
2014-10-02 01:24:00,63.2,50.8,29.97,East,80,0.0,0.0,64,0.00,,,0.00,Wunderground v.1.15,2014-10-02 06:24:00,
2014-10-02 01:34:00,63.0,50.6,29.97,East,80,0.0,0.0,64,0.00,,,0.00,Wunderground v.1.15,2014-10-02 06:34:00,
2014-10-02 01:44:00,63.0,49.8,29.97,East,80,0.0,0.0,62,0.00,,,0.00,Wunderground v.1.15,2014-10-02 06:44:00,
2014-10-02 01:54:00,63.0,50.2,29.97,East,80,0.0,0.0,63,0.00,,,0.00,Wunderground v.1.15,2014-10-02 06:54:00,
2014-10-02 02:04:00,62.8,50.0,29.96,East,80,0.0,0.0,63,0.00,,,0.00,Wunderground v.1.15,2014-10-02 07:04:00,
2014-10-02 02:14:00,62.6,49.8,29.96,East,80,0.0,0.0,63,0.00,,,0.00,Wunderground v.1.15,2014-10-02 07:14:00,
2014-10-02 02:24:00,62.4,49.6,29.96,East,80,0.0,0.0,63,0.00,,,0.00,Wunderground v.1.15,2014-10-02 07:24:00,
2014-10-02 02:29:00,62.3,49.5,29.96,East,81,0.0,0.0,63,0.00,,,0.00,Wunderground v.1.15,2014-10-02 07:29:00,
2014-10-02 02:39:00,62.1,48.9,29.97,East,80,0.0,0.0,62,0.00,,,0.00,Wunderground v.1.15,2014-10-02 07:39:00,
2014-10-02 02:49:00,62.0,48.4,29.97,East,80,0.0,0.0,61,0.00,,,0.00,Wunderground v.1.15,2014-10-02 07:49:00,
2014-10-02 02:54:00,61.9,48.3,29.97,East,80,0.0,0.0,61,0.00,,,0.00,Wunderground v.1.15,2014-10-02 07:54:00,
2014-10-02 02:59:00,61.8,48.2,29.97,East,80,0.0,0.0,61,0.00,,,0.00,Wunderground v.1.15,2014-10-02 07:59:00,
2014-10-02 03:09:00,62.0,47.0,29.97,East,80,0.0,0.0,58,0.00,,,0.00,Wunderground v.1.15,2014-10-02 08:09:00,
2014-10-02 03:14:00,62.0,47.5,29.97,East,80,0.0,0.0,59,0.00,,,0.00,Wunderground v.1.15,2014-10-02 08:14:00,
2014-10-02 03:24:00,62.4,46.5,29.97,East,80,0.0,0.0,56,0.00,,,0.00,Wunderground v.1.15,2014-10-02 08:24:00,
2014-10-02 03:34:00,62.4,47.9,29.97,East,80,0.0,0.0,59,0.00,,,0.00,Wunderground v.1.15,2014-10-02 08:34:00,
2014-10-02 03:44:00,62.0,48.4,29.97,East,80,0.0,0.0,61,0.00,,,0.00,Wunderground v.1.15,2014-10-02 08:44:00,
2014-10-02 03:54:00,61.7,48.1,29.98,East,81,0.0,0.0,61,0.00,,,0.00,Wunderground v.1.15,2014-10-02 08:54:00,
2014-10-02 04:04:00,61.5,47.9,29.98,East,81,0.0,0.0,61,0.00,,,0.00,Wunderground v.1.15,2014-10-02 09:04:00,
2014-10-02 04:14:00,61.3,46.8,29.98,East,80,0.0,0.0,59,0.00,,,0.00,Wunderground v.1.15,2014-10-02 09:14:00,
2014-10-02 04:24:00,61.1,46.7,29.98,East,81,0.0,0.0,59,0.00,,,0.00,Wunderground v.1.15,2014-10-02 09:24:00,
2014-10-02 04:34:00,60.9,46.5,29.98,East,80,0.0,0.0,59,0.00,,,0.00,Wunderground v.1.15,2014-10-02 09:34:00,
2014-10-02 04:44:00,60.8,46.4,29.99,East,80,0.0,0.0,59,0.00,,,0.00,Wunderground v.1.15,2014-10-02 09:44:00,
2014-10-02 04:54:00,60.7,45.8,29.99,East,81,0.0,0.0,58,0.00,,,0.00,Wunderground v.1.15,2014-10-02 09:54:00,
2014-10-02 05:04:00,60.6,45.7,29.99,East,81,0.0,0.0,58,0.00,,,0.00,Wunderground v.1.15,2014-10-02 10:04:00,
2014-10-02 05:14:00,60.5,45.2,29.99,East,80,0.0,0.0,57,0.00,,,0.00,Wunderground v.1.15,2014-10-02 10:14:00,
2014-10-02 05:19:00,60.5,45.2,30.00,East,80,0.0,0.0,57,0.00,,,0.00,Wunderground v.1.15,2014-10-02 10:19:00,
2014-10-02 05:29:00,60.5,45.2,30.00,East,80,0.0,0.0,57,0.00,,,0.00,Wunderground v.1.15,2014-10-02 10:29:00,
2014-10-02 05:34:00,60.4,45.1,30.00,East,81,0.0,0.0,57,0.00,,,0.00,Wunderground v.1.15,2014-10-02 10:34:00,
2014-10-02 05:44:00,60.4,44.6,30.00,East,81,0.0,0.0,56,0.00,,,0.00,Wunderground v.1.15,2014-10-02 10:44:00,
2014-10-02 05:49:00,60.4,44.6,30.01,East,81,0.0,0.0,56,0.00,,,0.00,Wunderground v.1.15,2014-10-02 10:49:00,
2014-10-02 05:54:00,60.5,44.2,30.01,East,80,0.0,0.0,55,0.00,,,0.00,Wunderground v.1.15,2014-10-02 10:54:00,
2014-10-02 05:59:00,60.7,44.4,30.01,East,80,0.0,0.0,55,0.00,,,0.00,Wunderground v.1.15,2014-10-02 10:59:00,
2014-10-02 06:04:00,60.9,44.1,30.01,East,80,0.0,0.0,54,0.00,,,0.00,Wunderground v.1.15,2014-10-02 11:04:00,
2014-10-02 06:14:00,60.8,44.5,30.01,East,80,0.0,0.0,55,0.00,,,0.00,Wunderground v.1.15,2014-10-02 11:14:00,
2014-10-02 06:24:00,60.5,44.7,30.01,East,81,0.0,0.0,56,0.00,,,0.00,Wunderground v.1.15,2014-10-02 11:24:00,
2014-10-02 06:29:00,60.5,44.7,30.01,East,81,0.0,0.0,56,0.00,,,0.00,Wunderground v.1.15,2014-10-02 11:29:00,
2014-10-02 06:34:00,60.4,44.6,30.01,East,81,0.0,0.0,56,0.00,,,0.00,Wunderground v.1.15,2014-10-02 11:34:00,
2014-10-02 06:44:00,60.4,44.2,30.02,East,81,0.0,0.0,55,0.00,,,0.00,Wunderground v.1.15,2014-10-02 11:44:00,
2014-10-02 06:54:00,60.5,44.2,30.02,East,80,0.0,0.0,55,0.00,,,0.00,Wunderground v.1.15,2014-10-02 11:54:00,
2014-10-02 07:04:00,60.8,44.0,30.02,East,80,0.0,0.0,54,0.00,,,0.00,Wunderground v.1.15,2014-10-02 12:04:00,
2014-10-02 07:14:00,61.2,44.4,30.03,East,81,0.0,0.0,54,0.00,,,0.00,Wunderground v.1.15,2014-10-02 12:14:00,
2014-10-02 07:24:00,62.1,45.2,30.03,East,81,0.0,0.0,54,0.00,,,0.00,Wunderground v.1.15,2014-10-02 12:24:00,
2014-10-02 07:34:00,62.8,45.9,30.03,East,80,0.0,0.0,54,0.00,,,0.00,Wunderground v.1.15,2014-10-02 12:34:00,
2014-10-02 07:44:00,63.6,46.6,30.03,East,80,0.0,0.0,54,0.00,,,0.00,Wunderground v.1.15,2014-10-02 12:44:00,
2014-10-02 07:54:00,64.3,47.3,30.03,East,81,0.0,0.0,54,0.00,,,0.00,Wunderground v.1.15,2014-10-02 12:54:00,
2014-10-02 08:04:00,65.3,48.2,30.04,East,81,0.0,0.0,54,0.00,,,0.00,Wunderground v.1.15,2014-10-02 13:04:00,